Date String (YYYY-MM-DD hh:mm:ss) UTC,Instrument flags,absolute air pressure of the measurement (hPa),sample flow rate (lpm),inlet stack bypass flow (lpm),air temperature of the measurement (°C),ambient temperature measured by the external sensor (°C),aerosol sample conditioner tube jacket temperature (°C),OPC LED temperature (°C),internal box temperature (°C),relative humidity of the measurement (%),span deviation,mass concentration of particles derived from Lorenz-Mie calculation of OPC scattering (μg/m³),mass concentration of particles derived from Lorenz-Mie calculation of OPC scattering (μg/m³),mass concentration of particles derived from Lorenz-Mie calculation of OPC scattering (μg/m³)
DateTimeUTC,F1_M11,P_M11,Q1_M11,Q2_M11,T1_M11,T2_M11,T3_M11,T4_M11,T5_M11,U1_M11,ZSPAN_M11,X0_M11,X2_M11,X1_M11
2023-07-29 03:00:00,SystemResetWarning,0838.2,4.99,000.00,028.9,025.3,000.0,037.4,030.1,32.0,0000.0,0018.68,0004.29,0003.07
2023-07-29 03:01:00,SystemResetWarning,0838.3,5.00,000.00,028.9,025.8,000.0,037.4,030.2,31.5,0000.0,0018.77,0004.30,0003.02
2023-07-29 03:02:00,SystemResetWarning,0838.3,5.01,000.00,028.9,026.2,000.0,037.4,030.3,31.4,0000.0,0018.34,0004.26,0002.99
2023-07-29 03:03:00,SystemResetWarning,0838.3,5.00,000.00,028.9,026.6,000.0,037.4,030.4,30.9,0000.0,0017.19,0004.29,0002.96
2023-07-29 03:04:00,SystemResetWarning,0838.3,5.00,000.00,028.9,027.0,000.0,037.4,030.5,30.5,0000.0,0017.93,0004.29,0002.95
2023-07-29 03:05:00,SystemResetWarning,0838.3,4.99,000.00,029.0,027.2,000.0,037.4,030.5,30.4,0000.0,0017.54,0004.29,0002.92
2023-07-29 03:06:00,SystemResetWarning,0838.2,5.00,000.00,029.0,027.5,000.0,037.4,030.6,30.6,0000.0,0017.55,0004.31,0002.89
2023-07-29 03:07:00,SystemResetWarning,0838.2,5.00,000.00,029.0,027.7,000.0,037.4,030.7,30.9,0000.0,0016.15,0004.34,0002.88
2023-07-29 03:08:00,SystemResetWarning,0838.2,5.00,000.00,029.1,027.8,000.0,037.4,030.8,30.5,0000.0,0015.26,0004.33,0002.85
2023-07-29 03:09:00,SystemResetWarning,0838.2,5.00,000.00,029.1,027.6,000.0,037.4,030.8,30.4,0000.0,0016.26,0004.28,0002.83
2023-07-29 03:10:00,SystemResetWarning,0838.1,5.00,000.00,029.1,026.0,000.0,037.3,030.6,30.2,0000.0,0016.07,0004.32,0002.81
2023-07-29 03:11:00,SystemResetWarning,0838.2,5.01,000.00,029.0,025.4,000.0,037.2,030.3,30.3,0000.0,0014.66,0004.33,0002.79
2023-07-29 03:12:00,SystemResetWarning,0838.2,5.01,000.00,028.9,025.5,000.0,037.3,030.1,30.6,0000.0,0014.88,0004.34,0002.81
2023-07-29 03:13:00,SystemResetWarning,0838.2,5.00,000.00,028.9,025.8,000.0,037.3,030.2,30.9,0000.0,0015.46,0004.41,0002.83
2023-07-29 03:14:00,SystemResetWarning,0838.2,5.00,000.00,028.9,026.2,000.0,037.3,030.3,31.0,0000.0,0016.85,0004.47,0002.84
2023-07-29 03:15:00,SystemResetWarning,0838.2,5.00,000.00,028.9,026.6,000.0,037.3,030.4,30.8,0000.0,0016.32,0004.47,0002.82
2023-07-29 03:16:00,SystemResetWarning,0838.2,5.00,000.00,028.9,026.9,000.0,037.3,030.5,30.7,0000.0,0016.91,0004.45,0002.82
2023-07-29 03:17:00,SystemResetWarning,0838.3,5.00,000.00,029.0,027.2,000.0,037.4,030.6,30.7,0000.0,0017.07,0004.42,0002.82
2023-07-29 03:18:00,SystemResetWarning,0838.4,4.99,000.00,029.0,027.5,000.0,037.4,030.7,30.6,0000.0,0017.53,0004.43,0002.80
2023-07-29 03:19:00,SystemResetWarning,0838.4,5.00,000.00,029.1,027.7,000.0,037.4,030.7,30.7,0000.0,0018.11,0004.46,0002.80
2023-07-29 03:20:00,SystemResetWarning,0838.6,5.00,000.00,029.1,027.9,000.0,037.4,030.8,30.7,0000.0,0018.41,0004.47,0002.78
2023-07-29 03:21:00,SystemResetWarning,0838.6,5.00,000.00,029.1,027.2,000.0,037.4,030.7,30.5,0000.0,0018.41,0004.44,0002.78
2023-07-29 03:22:00,SystemResetWarning,0838.6,5.01,000.00,029.1,025.8,000.0,037.3,030.5,30.3,0000.0,0018.96,0004.38,0002.77
2023-07-29 03:23:00,SystemResetWarning,0838.6,5.01,000.00,029.0,025.3,000.0,037.2,030.3,30.1,0000.0,0018.81,0004.37,0002.75
2023-07-29 03:24:00,SystemResetWarning,0838.6,5.01,000.00,028.9,025.6,000.0,037.3,030.2,30.0,0000.0,0018.23,0004.35,0002.75
2023-07-29 03:25:00,SystemResetWarning,0838.6,5.00,000.00,028.9,025.9,000.0,037.3,030.3,30.3,0000.0,0017.42,0004.25,0002.72
2023-07-29 03:26:00,SystemResetWarning,0838.6,5.00,000.00,028.9,026.3,000.0,037.3,030.4,30.4,0000.0,0017.60,0004.18,0002.69
2023-07-29 03:27:00,SystemResetWarning,0838.6,5.00,000.00,028.9,026.7,000.0,037.3,030.4,30.4,0000.0,0017.06,0004.12,0002.67
2023-07-29 03:28:00,SystemResetWarning,0838.6,5.00,000.00,028.9,027.0,000.0,037.3,030.5,30.3,0000.0,0017.00,0004.13,0002.64
2023-07-29 03:29:00,SystemResetWarning,0838.6,5.00,000.00,029.0,027.3,000.0,037.4,030.6,30.0,0000.0,0016.98,0004.05,0002.62
2023-07-29 03:30:00,SystemResetWarning,0838.6,4.99,000.00,029.0,027.5,000.0,037.4,030.7,29.8,0000.0,0016.48,0004.03,0002.63
2023-07-29 03:31:00,SystemResetWarning,0838.6,5.00,000.00,029.1,027.7,000.0,037.4,030.7,29.8,0000.0,0015.67,0004.05,0002.63
2023-07-29 03:32:00,SystemResetWarning,0838.6,5.01,000.00,029.1,027.9,000.0,037.4,030.8,29.6,0000.0,0015.90,0004.04,0002.64
2023-07-29 03:33:00,SystemResetWarning,0838.6,4.99,000.00,029.1,026.7,000.0,037.3,030.7,29.4,0000.0,0015.96,0004.09,0002.66
2023-07-29 03:34:00,SystemResetWarning,0838.6,5.00,000.00,029.1,025.6,000.0,037.2,030.5,29.6,0000.0,0015.94,0004.08,0002.66
2023-07-29 03:35:00,SystemResetWarning,0838.6,5.02,000.00,029.0,025.4,000.0,037.2,030.3,29.9,0000.0,0016.69,0004.07,0002.65
2023-07-29 03:36:00,SystemResetWarning,0838.7,4.99,000.00,028.9,025.7,000.0,037.3,030.2,30.1,0000.0,0017.33,0004.10,0002.64
2023-07-29 03:37:00,SystemResetWarning,0838.7,5.00,000.00,028.9,026.1,000.0,037.3,030.3,30.2,0000.0,0018.48,0004.14,0002.64
2023-07-29 03:38:00,SystemResetWarning,0838.7,5.01,000.00,028.9,026.5,000.0,037.3,030.4,30.3,0000.0,0019.03,0004.18,0002.64
2023-07-29 03:39:00,SystemResetWarning,0838.7,5.00,000.00,028.9,026.8,000.0,037.3,030.5,30.5,0000.0,0019.45,0004.20,0002.65
2023-07-29 03:40:00,SystemResetWarning,0838.7,5.00,000.00,028.9,027.1,000.0,037.3,030.6,30.4,0000.0,0019.32,0004.24,0002.64
2023-07-29 03:41:00,SystemResetWarning,0838.7,4.99,000.00,029.0,027.4,000.0,037.4,030.6,30.5,0000.0,0018.75,0004.31,0002.61
2023-07-29 03:42:00,SystemResetWarning,0838.7,5.00,000.00,029.0,027.6,000.0,037.4,030.7,30.3,0000.0,0019.00,0004.37,0002.61
2023-07-29 03:43:00,SystemResetWarning,0838.6,5.01,000.00,029.1,027.8,000.0,037.4,030.8,30.2,0000.0,0018.54,0004.42,0002.60
2023-07-29 03:44:00,SystemResetWarning,0838.6,5.00,000.00,029.1,027.9,000.0,037.4,030.8,30.2,0000.0,0018.36,0004.47,0002.60
2023-07-29 03:45:00,SystemResetWarning,0838.6,5.00,000.00,029.1,027.3,000.0,037.4,030.8,30.0,0000.0,0018.49,0004.47,0002.59
2023-07-29 03:46:00,SystemResetWarning,0838.6,5.00,000.00,029.1,025.8,000.0,037.3,030.6,29.9,0000.0,0017.72,0004.47,0002.60
2023-07-29 03:47:00,SystemResetWarning,0838.6,5.01,000.00,029.0,025.4,000.0,037.2,030.4,30.1,0000.0,0017.08,0004.53,0002.61
2023-07-29 03:48:00,SystemResetWarning,0838.6,5.01,000.00,029.0,025.6,000.0,037.3,030.3,30.2,0000.0,0016.34,0004.52,0002.61
2023-07-29 03:49:00,SystemResetWarning,0838.6,4.99,000.00,028.9,026.0,000.0,037.3,030.3,30.4,0000.0,0016.32,0004.47,0002.60
2023-07-29 03:50:00,SystemResetWarning,0838.6,5.00,000.00,028.9,026.4,000.0,037.3,030.4,30.6,0000.0,0016.25,0004.38,0002.56
2023-07-29 03:51:00,SystemResetWarning,0838.6,5.01,000.00,028.9,026.7,000.0,037.3,030.5,30.4,0000.0,0017.10,0004.37,0002.55
2023-07-29 03:52:00,SystemResetWarning,0838.6,5.01,000.00,029.0,027.0,000.0,037.4,030.6,30.1,0000.0,0018.81,0004.27,0002.56
2023-07-29 03:53:00,SystemResetWarning,0838.7,5.00,000.00,029.0,027.3,000.0,037.4,030.6,29.8,0000.0,0018.39,0004.20,0002.54
2023-07-29 03:54:00,SystemResetWarning,0838.7,5.00,000.00,029.0,027.5,000.0,037.4,030.7,29.8,0000.0,0018.77,0004.17,0002.54
2023-07-29 03:55:00,SystemResetWarning,0838.6,5.00,000.00,029.1,027.7,000.0,037.4,030.8,30.0,0000.0,0019.10,0004.17,0002.52
2023-07-29 03:56:00,SystemResetWarning,0838.7,4.99,000.00,029.1,027.9,000.0,037.4,030.8,29.8,0000.0,0019.44,0004.18,0002.52
2023-07-29 03:57:00,SystemResetWarning,0838.6,4.99,000.00,029.2,027.6,000.0,037.4,030.8,29.6,0000.0,0019.34,0004.18,0002.51
2023-07-29 03:58:00,SystemResetWarning,0838.6,4.99,000.00,029.1,026.0,000.0,037.3,030.5,29.7,0000.0,0020.06,0004.18,0002.53
2023-07-29 03:59:00,SystemResetWarning,0838.6,5.01,000.00,029.0,025.3,000.0,037.3,030.4,30.1,0000.0,0019.75,0004.19,0002.55
